Location: Unspecified
(33.1585°N, 0.0000°E)
Time: 19:51:32
(UTC+00:00)

Vanguard 1 - Visible Passes

Search period start: 04 April 2026 00:00
Search period end: 14 April 2026 00:00
Orbit: 654 x 3817 km, 34.2° (Epoch: 28 March)

Date Brightness Start Highest point End Pass type
(mag) Time Alt. Az. Time Alt. Az. Time Alt. Az.
4 Apr 12.1 01:49:58 58° SE 01:49:58 58° SE 02:00:49 10° E visible
4 Apr 11.4 04:02:29 27° WSW 04:12:24 90° W 04:21:00 10° E visible
4 Apr 13.4 23:55:05 18° E 23:55:05 18° E 23:57:59 10° E visible
5 Apr 12.0 02:07:36 67° S 02:08:32 68° SSE 02:20:17 10° ENE visible
5 Apr 11.4 04:20:06 20° W 04:32:02 86° N 04:40:18 10° E visible
6 Apr 13.1 00:12:39 27° E 00:12:39 27° E 00:18:04 10° E visible
6 Apr 11.9 02:25:09 65° SW 02:28:13 77° SSE 02:39:40 10° ENE visible
6 Apr 11.3 04:37:39 13° W 04:51:39 84° N 04:59:37 10° E visible
7 Apr 12.8 00:30:08 38° E 00:30:08 38° E 00:37:52 10° E visible
7 Apr 11.8 02:42:38 55° WSW 02:47:55 84° SSE 02:59:02 10° E visible
7 Apr 11.3 04:56:20 10° W 05:11:15 86° N 05:18:56 10° E visible
7 Apr13.922:35:03E22:35:03E21:58:13SSWvisible
8 Apr 12.5 00:47:33 51° ESE 00:47:33 51° ESE 00:57:30 10° ENE visible
8 Apr 11.8 03:00:02 43° WSW 03:07:38 90° SSE 03:18:24 10° E visible
8 Apr 13.7 22:52:24 13° E 22:52:24 13° E 22:53:41 10° E visible
9 Apr 12.3 01:04:52 66° ESE 01:04:52 66° ESE 01:17:01 10° ENE visible
9 Apr 11.8 03:17:21 33° W 03:27:23 87° N 03:37:46 10° E visible
9 Apr 13.8 20:21:04 10° SSE 20:23:19 12° SSE 20:23:19 12° SSE visible
9 Apr 13.4 22:35:22 10° SSW 23:09:38 22° E 23:13:51 10° E visible
10 Apr 12.2 01:22:07 78° SSE 01:22:19 78° SSE 01:36:29 10° ENE visible
10 Apr 11.7 03:34:35 24° W 03:47:08 85° N 03:57:08 10° E visible
10 Apr 13.6 20:36:24 10° S 20:42:29 17° SSE 20:42:29 17° SSE visible
10 Apr 13.1 22:53:59 10° SW 23:26:47 32° E 23:33:45 10° ENE visible
11 Apr 12.2 01:39:14 72° WSW 01:42:08 85° SSE 01:55:56 10° E visible
11 Apr 11.7 03:51:42 17° W 04:06:52 87° N 04:16:29 10° E visible
11 Apr 13.5 20:53:13 10° S 21:31:20 - ENE 21:01:56 23° SSE visible
11 Apr 12.9 23:12:56 10° SW 23:43:47 44° E 23:53:28 10° ENE visible
12 Apr 12.1 01:56:14 58° WSW 02:01:59 90° SSE 02:15:22 10° E visible
12 Apr 11.6 04:08:41 10° W 04:26:33 89° S 04:35:48 10° ESE visible
12 Apr 13.3 21:10:49 10° SSW 21:48:11 11° E 21:48:26 10° E visible
12 Apr 12.6 23:32:12 10° SW 00:00:37 59° E 00:13:06 10° ENE visible
13 Apr 12.1 02:13:02 44° W 02:21:53 87° N 02:34:49 10° E visible
13 Apr 11.6 04:28:52 10° WNW 04:46:07 82° SSW 04:55:03 10° ESE visible
13 Apr 13.6 19:16:14 10° SSE 19:25:33 14° SE 19:29:06 14° ESE visible
13 Apr 13.1 21:28:57 10° SSW 22:04:47 19° E 22:08:45 10° ENE visible
